Togiak, AK

12:57 AM AKST on January 20, 2018 (GMT -0900)
Togiak

Weather History for PATG - September, 2013

Change the Weather History Date:

Saturday, September 14, 2013

  Actual Average Record
Temperature  
Mean Temperature 50 °F -  
Max Temperature 59 °F 51 °F 59 °F (2013)
Min Temperature 42 °F 37 °F 32 °F (1996)
Degree Days  
Heating Degree Days 14    
Moisture  
Dew Point 44 °F    
Average Humidity 76    
Maximum Humidity 100    
Minimum Humidity 59    
Precipitation  
Precipitation 0.00 in - - ()
Sea Level Pressure  
Sea Level Pressure 30.07 in    
Wind  
Wind Speed 8 mph (NNW)    
Max Wind Speed 22 mph    
Max Gust Speed 25 mph    
Visibility 10 miles    
Events      
Averages and records for this station are not official NWS values.
T = Trace of Precipitation, MM = Missing Value Source: NWS Daily Summary

Daily Weather History Graph

Daily Weather History Graph

Search for Another Location

Airport or City:

Trip Planner

Search our weather history database for the weather conditions in past years. The results will help you decide how hot, cold, wet, or windy it might be!

Date:

Astronomy

Sep. 14, 2013 Rise Set
Actual Time 8:09 AM AKDT 9:03 PM AKDT
Civil Twilight 7:28 AM AKDT 9:44 PM AKDT
Nautical Twilight 6:37 AM AKDT 10:34 PM AKDT
Astronomical Twilight 5:40 AM AKDT 11:30 PM AKDT
Moon 6:44 PM AKDT (9/14) 1:55 AM AKDT (9/14)
Length of Visible Light 14h 16m
Length of Day
12h 53m
Waxing Gibbous, 74% of the Moon is Illuminated
Sep 14
Waxing Gibbous
Sep 19
Full
Sep 26
Last Quarter
Oct 4
New
Oct 11
First Quarter

Hourly Weather History & Observations

Time (AKDT) Temp. Windchill Dew Point Humidity Pressure Visibility Wind Dir Wind Speed Gust Speed Precip Events Conditions
12:16 AM 48.2 °F - 44.6 °F 87% 30.02 in 10.0 mi NNE 9.2 mph - N/A   Clear
12:36 AM 48.2 °F - 44.6 °F 87% 30.02 in 10.0 mi North 8.1 mph - N/A   Clear
12:56 AM 48.2 °F - 44.6 °F 87% 30.02 in 10.0 mi NNE 4.6 mph - N/A   Clear
1:16 AM 48.2 °F - 44.6 °F 87% 30.03 in 10.0 mi North 4.6 mph - N/A   Clear
1:36 AM 46.4 °F - 44.6 °F 93% 30.03 in 10.0 mi Calm Calm - N/A   Clear
1:56 AM 48.2 °F - 44.6 °F 87% 30.03 in 10.0 mi NE 4.6 mph - N/A   Clear
2:16 AM 46.4 °F 44.3 °F 44.6 °F 93% 30.03 in 10.0 mi North 4.6 mph - N/A   Clear
2:36 AM 46.4 °F 43.5 °F 42.8 °F 87% 30.04 in 10.0 mi NNE 5.8 mph - N/A   Clear
2:56 AM 46.4 °F 43.5 °F 44.6 °F 93% 30.04 in 10.0 mi NNE 5.8 mph - N/A   Clear
3:16 AM 46.4 °F 42.9 °F 42.8 °F 87% 30.04 in 10.0 mi NE 6.9 mph - N/A   Clear
3:36 AM 44.6 °F 41.4 °F 42.8 °F 93% 30.04 in 10.0 mi NNE 5.8 mph - N/A   Clear
3:56 AM 44.6 °F 41.4 °F 42.8 °F 93% 30.04 in 10.0 mi North 5.8 mph - N/A   Clear
4:16 AM 42.8 °F 41.1 °F 42.8 °F 100% 30.04 in 10.0 mi North 3.5 mph - N/A   Clear
4:36 AM 42.8 °F 40.1 °F 41.0 °F 93% 30.05 in 10.0 mi North 4.6 mph - N/A   Clear
4:56 AM 42.8 °F 41.1 °F 41.0 °F 93% 30.05 in 10.0 mi North 3.5 mph - N/A   Clear
5:16 AM 44.6 °F 43.1 °F 42.8 °F 93% 30.05 in 10.0 mi NW 3.5 mph - N/A   Clear
5:36 AM 44.6 °F 43.1 °F 41.0 °F 87% 30.05 in 10.0 mi North 3.5 mph - N/A   Clear
5:56 AM 42.8 °F 41.1 °F 41.0 °F 93% 30.06 in 10.0 mi NE 3.5 mph - N/A   Clear
6:16 AM 44.6 °F - 42.8 °F 93% 30.06 in 10.0 mi Calm Calm - N/A   Clear
6:36 AM 46.4 °F 45.2 °F 42.8 °F 87% 30.06 in 10.0 mi NW 3.5 mph - N/A   Clear
6:56 AM 48.2 °F - 42.8 °F 82% 30.06 in 10.0 mi NNW 3.5 mph - N/A   Clear
7:16 AM 44.6 °F 40.7 °F 39.2 °F 81% 30.06 in 10.0 mi NNE 6.9 mph - N/A   Clear
7:36 AM 44.6 °F 40.7 °F 39.2 °F 81% 30.06 in 10.0 mi North 6.9 mph - N/A   Clear
7:56 AM 44.6 °F - 39.2 °F 81% 30.06 in 10.0 mi Calm Calm - N/A   Clear
8:16 AM 46.4 °F - 39.2 °F 76% 30.06 in 10.0 mi Calm Calm - N/A   Clear
8:36 AM 46.4 °F - 39.2 °F 76% 30.06 in 10.0 mi Calm Calm - N/A   Clear
8:56 AM 46.4 °F 42.9 °F 41.0 °F 81% 30.07 in 10.0 mi NNW 6.9 mph - N/A   Clear
9:16 AM 48.2 °F - 41.0 °F 76% 30.07 in 10.0 mi North 10.4 mph - N/A   Clear
9:36 AM 48.2 °F - 41.0 °F 76% 30.07 in 10.0 mi NNE 5.8 mph - N/A   Clear
9:56 AM 50.0 °F - 41.0 °F 71% 30.07 in 10.0 mi North 6.9 mph - N/A   Clear
10:16 AM 51.8 °F - 41.0 °F 67% 30.08 in 10.0 mi NNW 8.1 mph - N/A   Clear
10:36 AM 51.8 °F - 42.8 °F 71% 30.08 in 10.0 mi NNW 10.4 mph - N/A   Clear
10:56 AM 53.6 °F - 42.8 °F 67% 30.08 in 10.0 mi North 11.5 mph - N/A   Clear
11:16 AM 53.6 °F - 42.8 °F 67% 30.08 in 10.0 mi North 12.7 mph 17.3 mph N/A   Clear
11:36 AM 55.4 °F - 44.6 °F 67% 30.09 in 10.0 mi NNW 10.4 mph - N/A   Clear
11:56 AM 55.4 °F - 44.6 °F 67% 30.08 in 10.0 mi NNW 12.7 mph - N/A   Clear
12:16 PM 55.4 °F - 44.6 °F 67% 30.08 in 10.0 mi NNW 15.0 mph - N/A   Clear
12:36 PM 57.2 °F - 44.6 °F 63% 30.08 in 10.0 mi NNW 13.8 mph - N/A   Clear
12:56 PM 57.2 °F - 44.6 °F 63% 30.08 in 10.0 mi NNW 13.8 mph - N/A   Clear
1:16 PM 57.2 °F - 44.6 °F 63% 30.08 in 10.0 mi NNW 11.5 mph 21.9 mph N/A   Clear
1:36 PM 57.2 °F - 44.6 °F 63% 30.08 in 10.0 mi NNW 13.8 mph 17.3 mph N/A   Clear
1:56 PM 57.2 °F - 44.6 °F 63% 30.08 in 10.0 mi NNW 11.5 mph 17.3 mph N/A   Partly Cloudy
2:16 PM 59.0 °F - 44.6 °F 59% 30.08 in 10.0 mi NW 12.7 mph - N/A   Scattered Clouds
2:36 PM 59.0 °F - 46.4 °F 63% 30.08 in 10.0 mi NW 12.7 mph 18.4 mph N/A   Partly Cloudy
2:56 PM 59.0 °F - 46.4 °F 63% 30.08 in 10.0 mi NW 13.8 mph - N/A   Clear
3:16 PM 59.0 °F - 44.6 °F 59% 30.07 in 10.0 mi NNW 12.7 mph - N/A   Clear
3:36 PM 59.0 °F - 44.6 °F 59% 30.07 in 10.0 mi NNW 13.8 mph - N/A   Clear
3:56 PM 59.0 °F - 46.4 °F 63% 30.07 in 10.0 mi NNW 15.0 mph - N/A   Clear
4:16 PM 57.2 °F - 44.6 °F 63% 30.07 in 10.0 mi NW 17.3 mph 23.0 mph N/A   Clear
4:36 PM 57.2 °F - 44.6 °F 63% 30.07 in 10.0 mi NW 17.3 mph 23.0 mph N/A   Clear
4:56 PM 57.2 °F - 44.6 °F 63% 30.07 in 10.0 mi NNW 18.4 mph - N/A   Clear
5:16 PM 57.2 °F - 44.6 °F 63% 30.06 in 10.0 mi NNW 16.1 mph 19.6 mph N/A   Clear
5:36 PM 57.2 °F - 44.6 °F 63% 30.06 in 10.0 mi NW 16.1 mph 21.9 mph N/A   Clear
5:56 PM 57.2 °F - 44.6 °F 63% 30.06 in 10.0 mi NW 15.0 mph - N/A   Clear
6:16 PM 57.2 °F - 44.6 °F 63% 30.06 in 10.0 mi NW 17.3 mph 21.9 mph N/A   Clear
6:36 PM 57.2 °F - 44.6 °F 63% 30.06 in 10.0 mi NW 21.9 mph 25.3 mph N/A   Clear
6:56 PM 55.4 °F - 44.6 °F 67% 30.07 in 10.0 mi NNW 17.3 mph 23.0 mph N/A   Clear
7:16 PM 55.4 °F - 46.4 °F 72% 30.07 in 10.0 mi NNW 17.3 mph 20.7 mph N/A   Clear
7:36 PM 55.4 °F - 44.6 °F 67% 30.08 in 10.0 mi NNW 13.8 mph - N/A   Clear
7:56 PM 55.4 °F - 44.6 °F 67% 30.08 in 10.0 mi NNW 12.7 mph - N/A   Clear
8:16 PM 53.6 °F - 44.6 °F 72% 30.08 in 10.0 mi NW 9.2 mph 16.1 mph N/A   Clear
8:36 PM 51.8 °F - 44.6 °F 76% 30.09 in 10.0 mi NW 8.1 mph - N/A   Clear
8:56 PM 51.8 °F - 44.6 °F 76% 30.09 in 10.0 mi NW 9.2 mph - N/A   Clear
9:16 PM 51.8 °F - 44.6 °F 76% 30.10 in 10.0 mi WNW 6.9 mph - N/A   Clear
9:36 PM 51.8 °F - 44.6 °F 76% 30.10 in 10.0 mi NW 9.2 mph - N/A   Clear
9:56 PM 50.0 °F - 44.6 °F 82% 30.11 in 10.0 mi NW 10.4 mph - N/A   Clear
10:16 PM 50.0 °F - 44.6 °F 82% 30.11 in 10.0 mi NNW 12.7 mph - N/A   Clear
10:36 PM 50.0 °F - 44.6 °F 82% 30.10 in 10.0 mi NNW 12.7 mph - N/A   Clear
10:56 PM 48.2 °F - 44.6 °F 87% 30.11 in 10.0 mi NNW 8.1 mph - N/A   Clear
11:16 PM 48.2 °F - 44.6 °F 87% 30.12 in 10.0 mi NW 6.9 mph - N/A   Clear
11:36 PM 48.2 °F - 42.8 °F 82% 30.12 in 10.0 mi NNW 8.1 mph - N/A   Clear
11:56 PM 48.2 °F - 42.8 °F 82% 30.13 in 10.0 mi NNW 8.1 mph - N/A   Clear